When you browse on this site, cookies collect data to enhance your experience and personalize the content and advertising you see.
Visit our Privacy Policy to learn more. By continuing to use the site, you agree to this use of cookies and data.
  • In Switzerland
  • List of Countries
  • For 7 days
  • Water Temperature
  • Weather Map
  • Weather Widgets
  • user-avatar
    Login

    Hourly Weather Donskie Ozerki

    Today, 26 August, Monday

    Time Temperature Precipitation Wind Pressure Humidity
    00:00 +13°C° 0 mm 3 mps 757 mmHg 88%
    01:00 +13°C° 0 mm 2 mps 757 mmHg 89%
    02:00 +13°C° 0 mm 2 mps 757 mmHg 90%
    03:00 +12°C° 0 mm 1 mps 758 mmHg 90%
    04:00 +12°C° 0 mm 1 mps 757 mmHg 91%
    05:00 +12°C° 0 mm 1 mps 757 mmHg 91%
    06:00 +11°C° 0 mm 1 mps 757 mmHg 92%
    07:00 +13°C° 0 mm 1 mps 758 mmHg 85%
    08:00 +14°C° 0 mm 1 mps 758 mmHg 78%
    09:00 +16°C° 0 mm 1 mps 758 mmHg 72%
    10:00 +18°C° 0 mm 1 mps 758 mmHg 67%
    11:00 +18°C° 0 mm 0 mps 758 mmHg 61%
    12:00 +19°C° 0 mm 0 mps 757 mmHg 56%
    13:00 +21°C° 0 mm 1 mps 757 mmHg 54%
    14:00 +22°C° 0 mm 1 mps 757 mmHg 51%
    15:00 +22°C° 0 mm 1 mps 757 mmHg 49%
    16:00 +22°C° 0 mm 1 mps 756 mmHg 52%
    17:00 +22°C° 0 mm 1 mps 756 mmHg 55%
    18:00 +22°C° 0 mm 1 mps 755 mmHg 59%
    19:00 +20°C° 0 mm 1 mps 755 mmHg 62%
    20:00 +19°C° 0 mm 1 mps 755 mmHg 65%
    21:00 +18°C° 0 mm 1 mps 755 mmHg 69%
    22:00 +16°C° 0 mm 2 mps 754 mmHg 71%
    23:00 +16°C° 0 mm 2 mps 754 mmHg 73%

    Tomorrow, 27 August, Tuesday

    Time Temperature Precipitation Wind Pressure Humidity
    00:00 +16°C° 0 mm 3 mps 754 mmHg 75%
    01:00 +16°C° 0 mm 3 mps 753 mmHg 75%
    02:00 +14°C° 0 mm 3 mps 753 mmHg 76%
    03:00 +14°C° 0 mm 3 mps 753 mmHg 77%
    04:00 +14°C° 0 mm 4 mps 752 mmHg 78%
    05:00 +15°C° 0 mm 4 mps 752 mmHg 78%
    06:00 +15°C° 0 mm 4 mps 751 mmHg 79%
    07:00 +16°C° 0 mm 5 mps 751 mmHg 78%
    08:00 +17°C° 0 mm 5 mps 751 mmHg 77%
    09:00 +19°C° 0 mm 5 mps 750 mmHg 76%
    10:00 +20°C° 0.7 mm 6 mps 750 mmHg 73%
    11:00 +21°C° 0.7 mm 6 mps 750 mmHg 70%
    12:00 +22°C° 0.7 mm 7 mps 750 mmHg 67%
    13:00 +22°C° 0.2 mm 6 mps 750 mmHg 66%
    14:00 +22°C° 0.2 mm 6 mps 750 mmHg 64%
    15:00 +22°C° 0.2 mm 6 mps 750 mmHg 62%
    16:00 +22°C° 0 mm 5 mps 750 mmHg 64%
    17:00 +21°C° 0 mm 4 mps 750 mmHg 66%
    18:00 +20°C° 0 mm 4 mps 750 mmHg 68%
    19:00 +19°C° 0 mm 4 mps 750 mmHg 70%
    20:00 +18°C° 0 mm 4 mps 750 mmHg 73%
    21:00 +15°C° 0 mm 4 mps 750 mmHg 75%
    22:00 +15°C° 0 mm 4 mps 751 mmHg 78%
    23:00 +14°C° 0 mm 3 mps 751 mmHg 82%

    Day after tomorrow, 28 August, Wednesday

    Time Temperature Precipitation Wind Pressure Humidity
    00:00 +13°C° 0 mm 3 mps 751 mmHg 85%
    01:00 +12°C° 0 mm 4 mps 751 mmHg 85%
    02:00 +12°C° 0 mm 4 mps 751 mmHg 84%
    03:00 +11°C° 0 mm 4 mps 752 mmHg 84%
    04:00 +11°C° 0 mm 4 mps 752 mmHg 85%
    05:00 +10°C° 0 mm 4 mps 752 mmHg 86%
    06:00 +10°C° 0 mm 4 mps 752 mmHg 87%
    07:00 +10°C° 0 mm 5 mps 753 mmHg 82%
    08:00 +12°C° 0 mm 5 mps 753 mmHg 77%
    09:00 +13°C° 0 mm 6 mps 753 mmHg 72%
    10:00 +13°C° 0 mm 6 mps 753 mmHg 66%
    11:00 +14°C° 0 mm 6 mps 753 mmHg 60%
    12:00 +15°C° 0 mm 6 mps 753 mmHg 53%
    13:00 +15°C° 0 mm 6 mps 753 mmHg 51%
    14:00 +15°C° 0 mm 6 mps 753 mmHg 49%
    15:00 +15°C° 0 mm 6 mps 753 mmHg 47%
    16:00 +15°C° 0 mm 6 mps 754 mmHg 50%
    17:00 +14°C° 0 mm 5 mps 754 mmHg 54%
    18:00 +14°C° 0 mm 4 mps 754 mmHg 57%
    19:00 +12°C° 0 mm 4 mps 754 mmHg 61%
    20:00 +11°C° 0 mm 3 mps 755 mmHg 65%
    21:00 +10°C° 0 mm 3 mps 755 mmHg 69%
    22:00 +9°C° 0 mm 3 mps 755 mmHg 72%
    23:00 +9°C° 0 mm 3 mps 755 mmHg 74%

    29 August, Thursday

    Time Temperature Precipitation Wind Pressure Humidity
    00:00 +8°C° 0 mm 3 mps 755 mmHg 77%
    01:00 +8°C° 0 mm 2 mps 755 mmHg 79%
    02:00 +7°C° 0 mm 2 mps 755 mmHg 80%
    03:00 +7°C° 0 mm 2 mps 756 mmHg 81%
    04:00 +7°C° 0 mm 2 mps 756 mmHg 81%
    05:00 +7°C° 0 mm 2 mps 756 mmHg 80%
    06:00 +7°C° 0 mm 2 mps 756 mmHg 80%
    07:00 +8°C° 0 mm 3 mps 756 mmHg 74%
    08:00 +10°C° 0 mm 3 mps 756 mmHg 68%
    09:00 +12°C° 0 mm 3 mps 756 mmHg 62%
    10:00 +12°C° 0 mm 3 mps 756 mmHg 59%
    11:00 +13°C° 0 mm 4 mps 756 mmHg 57%
    12:00 +14°C° 0 mm 4 mps 756 mmHg 54%
    13:00 +14°C° 0 mm 4 mps 755 mmHg 56%
    14:00 +14°C° 0 mm 4 mps 755 mmHg 58%
    15:00 +14°C° 0 mm 3 mps 755 mmHg 59%
    16:00 +14°C° 0 mm 3 mps 754 mmHg 63%
    17:00 +14°C° 0 mm 3 mps 754 mmHg 66%
    18:00 +14°C° 0 mm 3 mps 754 mmHg 69%
    19:00 +15°C° 0 mm 2 mps 754 mmHg 73%
    20:00 +14°C° 0 mm 2 mps 754 mmHg 77%
    21:00 +14°C° 0 mm 1 mps 754 mmHg 81%
    22:00 +13°C° 0.1 mm 2 mps 754 mmHg 85%
    23:00 +13°C° 0.1 mm 2 mps 754 mmHg 89%

    30 August, Friday

    Time Temperature Precipitation Wind Pressure Humidity
    00:00 +13°C° 0.1 mm 2 mps 754 mmHg 93%
    01:00 +12°C° 0 mm 2 mps 754 mmHg 93%
    02:00 +12°C° 0 mm 2 mps 754 mmHg 93%
    03:00 +10°C° 0 mm 2 mps 754 mmHg 92%
    04:00 +10°C° 0 mm 2 mps 754 mmHg 92%
    05:00 +9°C° 0 mm 2 mps 754 mmHg 92%
    06:00 +9°C° 0 mm 1 mps 754 mmHg 91%
    07:00 +11°C° 0 mm 1 mps 754 mmHg 84%
    08:00 +12°C° 0 mm 1 mps 754 mmHg 77%
    09:00 +13°C° 0 mm 1 mps 755 mmHg 70%
    10:00 +14°C° 0 mm 1 mps 755 mmHg 64%
    11:00 +15°C° 0 mm 1 mps 755 mmHg 59%
    12:00 +16°C° 0 mm 1 mps 755 mmHg 53%
    13:00 +18°C° 0 mm 1 mps 754 mmHg 51%
    14:00 +19°C° 0 mm 1 mps 754 mmHg 50%
    15:00 +20°C° 0 mm 1 mps 754 mmHg 48%
    16:00 +19°C° 0 mm 1 mps 754 mmHg 53%
    17:00 +17°C° 0 mm 2 mps 754 mmHg 58%
    18:00 +17°C° 0 mm 2 mps 754 mmHg 63%
    19:00 +16°C° 0 mm 2 mps 754 mmHg 62%
    20:00 +15°C° 0 mm 1 mps 754 mmHg 61%
    21:00 +14°C° 0 mm 1 mps 754 mmHg 60%
    22:00 +14°C° 0 mm 1 mps 754 mmHg 61%
    23:00 +13°C° 0 mm 1 mps 754 mmHg 61%

    31 August, Saturday

    Time Temperature Precipitation Wind Pressure Humidity
    00:00 +12°C° 0 mm 1 mps 754 mmHg 62%
    01:00 +12°C° 0 mm 1 mps 754 mmHg 62%
    02:00 +12°C° 0 mm 1 mps 754 mmHg 63%
    03:00 +11°C° 0 mm 1 mps 755 mmHg 63%
    04:00 +11°C° 0 mm 1 mps 754 mmHg 63%
    05:00 +11°C° 0 mm 1 mps 754 mmHg 63%
    06:00 +12°C° 0 mm 1 mps 754 mmHg 63%
    07:00 +13°C° 0 mm 1 mps 754 mmHg 62%
    08:00 +14°C° 0 mm 1 mps 754 mmHg 60%
    09:00 +15°C° 0 mm 1 mps 754 mmHg 58%
    10:00 +16°C° 0 mm 1 mps 754 mmHg 59%
    11:00 +18°C° 0 mm 1 mps 754 mmHg 59%
    12:00 +19°C° 0 mm 1 mps 754 mmHg 60%
    13:00 +20°C° 0 mm 1 mps 754 mmHg 60%
    14:00 +21°C° 0 mm 1 mps 754 mmHg 60%
    15:00 +21°C° 0 mm 1 mps 754 mmHg 60%
    16:00 +21°C° 0.4 mm 1 mps 753 mmHg 64%
    17:00 +21°C° 0.4 mm 1 mps 753 mmHg 68%
    18:00 +20°C° 0.4 mm 1 mps 753 mmHg 72%
    19:00 +19°C° 0.1 mm 1 mps 753 mmHg 76%
    20:00 +18°C° 0.1 mm 1 mps 753 mmHg 79%
    21:00 +16°C° 0.1 mm 1 mps 753 mmHg 82%
    22:00 +16°C° 0.2 mm 1 mps 753 mmHg 84%
    23:00 +16°C° 0.2 mm 1 mps 752 mmHg 85%
    Show more